星链-5901 (STARLINK-5901 )

导读 | 星芒AI

STARLINK-5901 是 SpaceX Starlink 项目中的一颗低轨通信卫星,属于第 17 批组网发射的卫星之一。该卫星于 2022 年 1 月 13 日由猎鹰 9 号火箭送入近地轨道,旨在为全球提供高速互联网服务。它运行在约 550 公里的高度,设计寿命为 5 至 7 年。STARLINK-5901 采用先进相控阵天线和激光通信技术,提升网络覆盖与传输效率,支持偏远地区互联网接入,推动 Starlink 网络的全球部署。

基本信息
目录编号:
55999
目录名称:
STARLINK-5901
国际标识:
2023-042P
轨道中心:
EARTH
卫星名称:
星链-5901
卫星全名:
星链-5901 (STARLINK-5901 )
卫星状态:
在轨 (已飞行1003 天)
发射日期:
2023-03-24 UTC
国别 :
美国 (US)
星等 :
--
轨道信息
数据来源 国际轨道数据 AOE轨道数据
星历时间 2025-12-21T00:00:14+0800
1天前
查看轨道信息
2025-12-21T04:00:00+0800
20小时前
查看轨道信息
半长轴 6937.223km 6937.22km
偏心率 0.0001379 0.0001295
轨道倾角 43.003° 43.004°
近地点辐角 273.356° 272.409°
升交点赤经 125.469° 124.565°
平近点角 86.712° 269.367°
近地点 558.129km 558.184km
远地点 560.043km 559.982km
周期 95.838分钟 95.838分钟
每日圈数 15.025342 15.02535
详细信息
固有亮度:
5
最大亮度:
2.5
卫星平台:
Starlink v1.5
覆盖范围:
全球
运营商:
太空探索技术公司
运营商所在国:
美国
制造商(研发单位):
太空探索技术公司
制造商所在国:
美国
使用方式:
暂无
卫星简介
星链(Starlink)计划是由太空探索技术公司(SpaceX)提出的一个巨型低轨卫星互联网星座项目,计划在2019年至2024年间在太空搭建由约1.2万颗卫星组成的“星链”网络,其中1584颗将部署在地球上空550千米处的近地轨道,并从2020年开始工作。该卫星仍在工作。
2D轨道图
3D轨道图
轨道高度分析图
轨道倾角分析图
轨道综合分析图
查看轨道综合分析图